Location: Casilda
(33.0440°S, 61.1680°W)
Time: 18:30:36
(UTC-03:00)

ISS - Pass Details

Date: 29 November 2021
Orbit: 417 x 423 km, 51.6° (Epoch: 28 November)

Event Time Altitude Azimuth Distance (km) Brightness Sun altitude
Exits shadow 02:56:50 20° 129° (SE) 1,032 -1.1 -27.9°
Drops below altitude 10° 02:58:03 10° 131° (SE) 1,518 0.0 -27.8°
Sets 03:00:10 0° 132° (SE) 2,388 1.3 -27.6°
